アトラス彗星

C/2017 D3 ( ATLAS )

English version
Home page
Updated on October 8, 2017

---------------------------------------------------------------------

・ プロフィール

発見日 2017年2月23日
発見光度 18.0等
発見者 Asteroid Terrestrial-impact Last Alert System (ATLAS) Team

・ 写真集

・ 軌道要素

Epoch 2017 May 7.0 TT = JDT 2457880.5
T 2017 Apr. 26.88398 TT                                 MPCW
q   4.9713354            (2000.0)            P               Q
z  -0.0004179      Peri.  340.77431     -0.91590213     -0.39037458
 +/-0.0000095      Node   186.60255     -0.16805715     +0.16153272
e   1.0020774      Incl.  125.64425     -0.36452720     +0.90637457
From 264 observations 2017 Feb. 10-July 17, mean residual 0".5.

・ 光度変化

        m1 = 7.0 + 5 logΔ + 10.0 log r

---------------------------------------------------------------------

軌道要素はM.P.E.C. 2017-T14に掲載されたものです。
光度グラフはComet for Windowsで作成したものです。

---------------------------------------------------------------------

Copyright(C) Seiichi Yoshida (comet@aerith.net). All rights reserved.